EUTE HOT BIRD 13B (HB 8)

导读 | 星芒AI

EUTELSAT HOT BIRD 13B(又称 HB 8)是一颗由Eutelsat运营的通信卫星,位于东经13度轨道位置。该卫星主要用于广播和直接到户(DTH)服务,覆盖欧洲、中东和非洲地区。它支持多种数字电视和广播信号的传输,广泛服务于公共和商业频道。作为HOT BIRD系列的一部分,HB 8 提供高带宽和可靠的信号传输,是欧洲地区卫星电视的重要基础设施之一。

基本信息
目录编号:
29270
目录名称:
EUTE HOT BIRD 13B (HB 8)
国际标识:
2006-032A
轨道中心:
EARTH
卫星名称:
EUTE HOT BIRD 13B (HB 8)
卫星全名:
--
卫星状态:
在轨 (已飞行7030 天)
发射日期:
2006-08-04 UTC
国别 :
(EUTE)
星等 :
--
轨道信息
数据来源 国际轨道数据 AOE轨道数据
星历时间 2025-11-01T22:48:38+0800
19小时前
查看轨道信息
2025-11-02T04:00:00+0800
14小时前
查看轨道信息
半长轴 42165.205km 42165.317km
偏心率 0.0003695 0.000383
轨道倾角 1.069° 1.069°
近地点辐角 131.080° 134.826°
升交点赤经 84.712° 84.732°
平近点角 80.629° 154.917°
近地点 35771.489km 35771.032km
远地点 35802.651km 35803.332km
周期 1436.121分钟 1436.127分钟
每日圈数 1.002701 1.002697
详细信息
使用方式:
暂无
2D轨道图
3D轨道图
轨道高度分析图
轨道倾角分析图
轨道综合分析图
查看轨道综合分析图